Weather in Samukh

Azerbaijan     40°45′52″N   46°24′28″E
temp.,
°C
wind,
m/s
gust,
m/s
humid.,
%
clouds,
%
prec.,
mm/h
press.,
hPa
HPBL,
m
28 september, tue
tue2801:00+17ese37530 0.0 1015187
04:00+16s127336 0.3 101593
07:00+16w136287 0.2 1016216
10:00+16n1262100 0.6 1016365
13:00+16ese337294 0.4 1017202
16:00+17ese567769 0.4 1016504
19:00+16e358227 0.0 1018223
22:00+15e34873 0.0 1018120
29 september, wed
wed2901:00+15e229165 0.0 101957
04:00+16e2387100 0.1 1018282
07:00+15ese3491100 0.3 1019353
10:00+16ese5883100 0.8 1019435
13:00+18ese897167 0.1 1018863
16:00+18ese10116543 0.1 1018849
19:00+15ese7117993 0.0 1018560
22:00+16ese71074100 0.0 1018604
30 september, thu
thu3001:00+15ese697747 0.0 1018425
04:00+15ese5877100 0.0 1018434
07:00+15ese7978100 0.0 1018535
10:00+16ese9117278 0.0 1018826
13:00+18ese11136172 0.0 10171026
16:00+17se111365100 0.0 1017887
19:00+16se81066100 0.2 1018587
22:00+15w1581100 1.7 1020455
1 october, fri
fri101:00+14ese2389100 6.8 1021281
04:00+13e3390100 9.9 1022218
07:00+13e3479100 0.6 1023296
10:00+14se4576100 0.7 1024329
13:00+14se4671100 0.0 1024529
16:00+15se766656 0.1 1024808
19:00+13ese8116894 0.0 1025561
22:00+13ese9126998 0.0 1026615
2 october, sat
sat201:00+13se7106889 0.0 1026431
04:00+12se7106895 0.0 1026535
07:00+12ese7106999 0.0 1026558
10:00+13se9116280 0.0 1027986
13:00+15se10105485 0.0 10271319
16:00+14ese8957100 0.0 10271116
19:00+13ese6864100 0.0 1028662
22:00+12e687190 0.0 1029484